Regional Weather Roundup
Issued by NWS

Home | Current Version | Previous Version | Text Only | Print | Product List | Glossary Off
Versions: 1 2 3 4 5 6 7 8 9 10 11 12 13 14 15 16 17 18 19 20 21 22 23 24 25 26 27 28 29 30 31 32 33 34 35 36 37 38 39 40 41 42 43 44 45 46 47 48 49 50

000
ASUS43 KIND 022309
RWRIN

WEATHER ROUNDUP FOR INDIANA
NATIONAL WEATHER SERVICE INDIANAPOLIS IN
700 PM EDT SUN AUG 02 2015

NOTE: "FAIR" INDICATES FEW OR NO CLOUDS BELOW 12,000 FEET WITH NO
SIGNIFICANT WEATHER AND/OR OBSTRUCTIONS TO VISIBILITY.

* - STATION DOES NOT REPORT WEATHER SUCH AS PRECIPITATION OR FOG.

+ - STATION NOT QUALITY CONTROLLED BY THE NATIONAL WEATHER SERVICE.
    USE DATA WITH CAUTION...ESPECIALLY DEWPOINT AND RELATIVE
    HUMIDITY OBSERVATIONS.

INZ001>003-010>013-019-020-030000-
NORTHWEST INDIANA

CITY           SKY/WX    TMP DP  RH WIND       PRES   REMARKS
GARY /AIRPORT/ MOSUNNY   90  70  51 SW12G37   29.70F HX  95
KNOX *+        PTSUNNY   88  63  42 SW18G26   29.73S
LA PORTE +     PTSUNNY   89  68  48 SW18G30   29.73R
MICHIGAN CITY+ MOSUNNY   88  64  45 SW16G26   29.70F
MONTICELLO +   MOSUNNY   87  68  53 SW17G26   29.78F
RENSSELAER +   SUNNY     88  68  51 SW13G26   29.76F
VALPARAISO     MOSUNNY   89  67  47 SW24G30   29.73F

$$

LMZ046-743>745-030000-
SOUTHERN LAKE MICHIGAN

STATION/POSITION TIME  TEMP    WIND        PRES    WAVE
                       AIR SEA DIR/SP/G            HT
                 (UTC) (F)     (DEG/KT/KT) (MB)    (FT)
BURNS HARBOR     2223   88     220/ 23/ 26 1005.4F
MICHIGAN CITY    2200   86     200/ 26/ 33   N/A
5NW MICH CITY    2300   83 74  240/ 17/ 25   N/A     4

$$

INZ004-005-014>016-021>024-030000-
NORTH CENTRAL INDIANA

CITY           SKY/WX    TMP DP  RH WIND       PRES   REMARKS
GOSHEN         CLOUDY    85  66  53 SW14G24   29.75R
LOGANSPORT +   MOSUNNY   86  59  39 SW15G26   29.80F
PERU/GRISSOM   MOSUNNY   87  69  54 SW21G26   29.78F
ROCHESTER +    CLOUDY    90  59  35 SW16G29   29.78S
SOUTH BEND     CLOUDY    89  64  43 SW20      29.72S
WARSAW +       PTSUNNY   86  63  45 SW9G18    29.77S

$$

INZ006>009-017-018-025>027-030000-
NORTHEAST INDIANA

CITY           SKY/WX    TMP DP  RH WIND       PRES   REMARKS
ANGOLA *+      SUNNY     86  81  84 SW15      29.75S HX 102
AUBURN +       MOSUNNY   86  63  45 SW12G17   29.78F
FORT WAYNE     PTSUNNY   86  66  51 SW17G24   29.79F
HUNTINGTON +   MOSUNNY   85  66  53 SW14G22   29.79F

$$

INZ028-029-035-036-043>045-051>053-030000-
WEST CENTRAL INDIANA

CITY           SKY/WX    TMP DP  RH WIND       PRES   REMARKS
CRAWFORDSVL +  SUNNY     83  65  53 SW8G16      N/A
GREENCASTLE +  SUNNY     84  64  51 S8        29.87F
LAFAYETTE      SUNNY     86  69  56 SW12G17   29.79F
TERRE HAUTE    SUNNY     88  70  55 S14       29.86F

$$

INZ030>032-037>040-046>048-054>057-064-065-030000-
CENTRAL INDIANA

CITY           SKY/WX    TMP DP  RH WIND       PRES   REMARKS
FISHERS *+     SUNNY     84  70  61 S13G18    29.84F
FRANKFORT +    SUNNY     85  71  62 S10G18    29.84F
GREENWOOD *+   SUNNY     84  63  48 S10G16    29.88F
INDIANAPOLIS   MOSUNNY   85  67  54 SW13      29.85F
-EAGLE CREEK   SUNNY     85  67  54 S13G20    29.84F
KOKOMO *+      MOSUNNY   88  66  48 SW17G25   29.81F
MARION +       MOSUNNY   85  64  49 SW17G23   29.82F
MT COMFORT *+  SUNNY     84  59  42 S10G18    29.86F
SHELBYVILLE    MOSUNNY   86  66  51 SW8       29.87F
ZIONSVILLE +   SUNNY     85  65  50 SW9G20    29.86F

$$

INZ033-034-041-042-049-050-058-059-030000-
EAST CENTRAL INDIANA

CITY           SKY/WX    TMP DP  RH WIND       PRES   REMARKS
MUNCIE         SUNNY     84  66  54 S14G20    29.84F

$$

INZ060-061-067>069-081>083-085>088-030000-
SOUTHWEST INDIANA

CITY           SKY/WX    TMP DP  RH WIND       PRES   REMARKS
EVANSVILLE     MOSUNNY   87  67  51 S8        29.90F
HUNTINGBURG *+ SUNNY     84  63  48 S9        29.91F
WASHINGTON +   SUNNY     86  62  44 SW8       29.88F

$$

INZ062-063-066-070>080-084-089>092-030000-
SOUTH CENTRAL AND SOUTHEAST INDIANA

CITY           SKY/WX    TMP DP  RH WIND       PRES   REMARKS
BLOOMINGTON    SUNNY     85  66  53 S9        29.89F
MADISON *+     SUNNY     84  55  37 SW7       29.93F
NORTH VERNON + MOSUNNY   86  57  37 S9        29.91F

$$




USA.gov is the U.S. government's official web portal to all federal, state and local government web resources and services.